Tracking 21470 objects as of 25-Sep-2020
HD Live streaming from Space Station
objects crossing your sky now

SL-8 DEB

Track SL-8 DEB now!
10-day predictions


NORAD ID: 21936
Int'l Code: 1991-009CD
Perigee: 1,472.8 km
Apogee: 1,894.1 km
Inclination: 74.1 °
Period: 119.9 minutes
Semi major axis: 8054 km
RCS: 0.0437 m2 (small)
Launch date: February 12, 1991
Source: Commonwealth of Independent States (former USSR) (CIS)
Launch site: PLESETSK MISSILE AND SPACE COMPLEX (PKMTR)

Note: This is SATELLITE DEBRIS
aabbcc
Your satellite tracking list
Your tracking list is empty




NASA's NSSDC Master Catalog

Two Line Element Set (TLE):
1 21936U 91009CD  20266.22687031  .00000196  00000-0  23193-2 0  9991
2 21936  74.0617  75.7619 0261535 195.9380 339.0834 12.01018288257375
Source of the keplerian elements: AFSPC